EW1898 Weather Reports


time (UTC)temp
C
wind
direction
speed
KPH
gust
KPH
rain 1hr
cm
rain 24hr
cm
rain mn
cm
humidity
%
barometer
mb
20260831063002 18 289 0.0 1.6 0.00 0.00 0.00 87 1017.6
20260831061559 18 288 0.0 1.6 0.00 0.00 0.00 86 1017.5
20260831060104 18 288 0.0 1.6 0.00 0.00 0.00 84 1017.5
20260831054551 19 288 0.0 0.0 0.00 0.00 0.00 83 1017.4
20260831053053 19 288 0.0 0.0 0.00 0.00 0.00 82 1017.3
20260831051548 20 288 0.0 1.6 0.00 0.00 0.00 81 1017.4
20260831050044 20 288 0.0 3.2 0.00 0.00 0.00 79 1017.2
20260831044547 20 287 0.0 4.8 0.00 0.00 0.00 78 1016.9
20260831043044 20 286 1.6 9.7 0.00 0.00 0.00 77 1016.7
20260831041541 21 285 1.6 8.0 0.00 0.00 0.00 77 1016.7
20260831040035 21 291 3.2 9.7 0.00 0.00 0.00 76 1016.6
20260831034533 21 290 1.6 8.0 0.00 0.00 0.00 77 1016.5
20260831033045 21 292 1.6 4.8 0.00 0.00 0.00 76 1016.6
20260831031535 21 292 1.6 4.8 0.00 0.00 0.00 76 1016.7
20260831030032 22 291 1.6 4.8 0.00 0.00 0.00 77 1016.8
20260831024532 22 290 1.6 6.4 0.00 0.00 0.00 79 1016.5
20260831023036 22 293 1.6 6.4 0.00 0.00 0.00 80 1016.7
20260831021537 22 292 1.6 6.4 0.00 0.00 0.00 81 1016.6
20260831020055 21 310 0.0 4.8 0.00 0.00 0.00 81 1016.6
20260831014529 22 306 0.0 1.6 0.00 0.00 0.00 80 1016.4
20260831013028 22 306 0.0 3.2 0.00 0.00 0.00 79 1016.4
20260831011529 22 304 0.0 3.2 0.00 0.00 0.00 79 1016.2
20260831010028 22 296 0.0 3.2 0.00 0.00 0.00 78 1015.9
20260831004527 22 309 0.0 3.2 0.00 0.00 0.00 77 1015.8
20260831003027 22 310 0.0 3.2 0.00 0.00 0.00 76 1015.7
20260831001529 22 311 0.0 3.2 0.00 0.00 0.00 75 1015.6
20260831000026 22 311 0.0 1.6 0.00 0.00 0.00 74 1015.5
20260830234538 22 312 0.0 1.6 0.00 0.00 0.00 73 1015.3
20260830233027 22 312 0.0 1.6 0.00 0.00 0.00 72 1015.1
20260830231527 22 312 0.0 1.6 0.00 0.00 0.00 70 1015.2
20260830230021 23 312 0.0 1.6 0.00 0.00 0.00 69 1015.3
20260830224519 23 312 0.0 0.0 0.00 0.00 0.00 69 1015.6
20260830223018 23 312 0.0 1.6 0.00 0.00 0.00 67 1015.6
20260830221517 23 312 0.0 3.2 0.00 0.00 0.00 67 1015.7
20260830220017 23 305 0.0 1.6 0.00 0.00 0.00 69 1015.7
20260830214516 23 305 0.0 1.6 0.00 0.00 0.00 71 1015.7
20260830213032 23 305 0.0 0.0 0.00 0.00 0.00 71 1015.7
20260830211514 23 305 0.0 0.0 0.00 0.00 0.00 69 1015.8
20260830210032 23 305 0.0 1.6 0.00 0.00 0.00 69 1016.1
20260830204510 24 305 0.0 1.6 0.00 0.00 0.00 67 1015.9
20260830203010 24 300 0.0 3.2 0.00 0.00 0.00 66 1016.1
20260830201509 24 312 1.6 3.2 0.00 0.00 0.00 65 1016.3
20260830200008 24 317 1.6 4.8 0.00 0.00 0.00 64 1016.3
20260830194506 24 343 0.0 6.4 0.00 0.00 0.00 64 1016.4
20260830193009 24 316 0.0 3.2 0.00 0.00 0.00 64 1016.7
20260830191503 24 316 0.0 3.2 0.00 0.00 0.00 63 1017.0
20260830190100 25 315 0.0 4.8 0.00 0.00 0.00 62 1017.1
20260830184607 25 315 0.0 4.8 0.00 0.00 0.00 61 1017.2
20260830183058 25 319 1.6 6.4 0.00 0.00 0.00 60 1017.2
20260830181559 25 310 1.6 6.4 0.00 0.00 0.00 61 1017.3
20260830180055 25 312 1.6 9.7 0.00 0.00 0.00 61 1017.5
20260830174558 25 305 1.6 6.4 0.00 0.00 0.00 62 1017.7
20260830173052 25 314 1.6 11.3 0.00 0.00 0.00 60 1018.1
20260830171550 25 306 0.0 6.4 0.00 0.00 0.00 62 1018.1
20260830170049 24 295 3.2 8.0 0.00 0.00 0.00 61 1018.1
20260830164549 24 304 1.6 9.7 0.00 0.00 0.00 60 1018.3
20260830163046 24 314 1.6 11.3 0.00 0.00 0.00 61 1018.4
20260830161601 23 288 6.4 11.3 0.00 0.00 0.00 60 1018.4
20260830160044 23 310 3.2 8.0 0.00 0.00 0.00 60 1018.7
20260830154543 25 284 1.6 9.7 0.00 0.00 0.00 58 1018.6
20260830153053 25 298 3.2 12.9 0.00 0.00 0.00 57 1018.7
20260830151546 25 279 6.4 14.5 0.00 0.00 0.00 58 1018.8
20260830150044 25 316 4.8 11.3 0.00 0.00 0.00 57 1018.9
20260830144538 25 305 3.2 9.7 0.00 0.00 0.00 61 1018.7
20260830143043 24 308 1.6 9.7 0.00 0.00 0.00 63 1019.0
20260830141531 23 300 0.0 4.8 0.00 0.00 0.00 65 1019.0
20260830140027 23 296 0.0 8.0 0.00 0.00 0.00 67 1019.3
20260830134531 22 291 1.6 9.7 0.00 0.00 0.00 68 1019.3
20260830133018 22 310 0.0 4.8 0.00 0.00 0.00 71 1019.3
20260830131515 21 303 0.0 3.2 0.00 0.00 0.00 72 1019.5
20260830130011 20 307 0.0 4.8 0.00 0.00 0.00 74 1019.7
20260830124505 19 305 0.0 3.2 0.00 0.00 0.00 76 1019.9
20260830123002 18 305 0.0 4.8 0.00 0.00 0.00 77 1020.0
20260830121557 17 305 0.0 1.6 0.00 0.00 0.00 80 1020.0
20260830120056 16 305 0.0 1.6 0.00 0.00 0.00 82 1020.0
20260830114608 16 305 0.0 1.6 0.00 0.00 0.00 85 1020.1
20260830113050 15 305 0.0 0.0 0.00 0.00 0.00 86 1020.1
20260830111545 15 305 0.0 0.0 0.00 0.00 0.00 87 1020.1
20260830110044 15 305 0.0 0.0 0.00 0.00 0.00 87 1020.0
20260830104541 15 305 0.0 0.0 0.00 0.00 0.00 87 1020.1
20260830103041 15 305 0.0 0.0 0.00 0.00 0.00 87 1020.0
20260830101550 15 305 0.0 0.0 0.00 0.00 0.00 88 1020.1
20260830100041 15 305 0.0 0.0 0.00 0.00 0.00 88 1020.2
20260830094540 15 305 0.0 0.0 0.00 0.00 0.00 88 1020.1
20260830093038 15 305 0.0 0.0 0.00 0.00 0.00 87 1020.1
20260830091539 15 305 0.0 0.0 0.00 0.00 0.00 86 1020.0
20260830090037 15 305 0.0 0.0 0.00 0.00 0.00 85 1020.2
20260830084532 15 305 0.0 0.0 0.00 0.00 0.00 85 1020.4
20260830083031 15 305 0.0 0.0 0.00 0.00 0.00 86 1020.7
20260830081530 15 305 0.0 0.0 0.00 0.00 0.00 86 1020.7
20260830080030 15 305 0.0 0.0 0.00 0.00 0.00 86 1020.6
20260830074532 15 305 0.0 0.0 0.00 0.00 0.00 87 1020.6
20260830073028 15 305 0.0 0.0 0.00 0.00 0.00 88 1020.6
20260830071528 14 305 0.0 0.0 0.00 0.00 0.00 89 1020.6
20260830070031 14 305 0.0 0.0 0.00 0.00 0.00 89 1020.4
20260830064526 14 305 0.0 0.0 0.00 0.00 0.00 89 1020.4